Location: Clanezzo
(45.7500°N, 9.6000°E)
Time: 14:10:57
(UTC+00:00)

USA 305 - Pass Details

Date: 12 May 2021
Orbit: 567 x 573 km, 54.0° (Epoch: 07 May)

Event Time Altitude Azimuth Distance (km) Brightness Sun altitude
Rises 20:23:35 0° 303° (WNW) 2,774 8.0 -14.7°
Reaches altitude 10° 20:25:50 10° 305° (NW) 1,875 6.8 -15.0°
Maximum altitude 20:30:07 77° 32° (NNE) 590 2.9 -15.5°
Enters shadow 20:32:22 27° 115° (ESE) 1,111 3.8 -15.7°
